[[{"header":{"parameterUnit":"m.s-1","parameterCategory":1,"la1":30.2991,"la2":30.254,"lo1":-89.0895,"lo2":-89.0444,"dy":0.0017,"dx":0.0017,"nx":28,"ny":28,"refTime":"2024-08-06T09:00:00:Z","depth":0,"parameterNumber":2,"parameterNumberName":"U-component_of_WINDS"},"data":[0,0,0,0,0,0,0,0,0,0,0,0,0,0,0,0,0,0,0,0,0,0,0,0,0,0,0,0,0,0,0,0,0,0,0,0,0,0,0,0,0,0,0,0,0,0,0,0,0,0,0,0,0,0,0,0,0,0,2.7782,2.7782,0,2.7801,2.7801,2.7801,2.773,2.7728,2.7726,2.7724,2.7747,2.7749,2.7752,0,0,0,0,0,0,0,0,0,0,0,0,0,2.7689,2.7691,2.7781,2.7782,2.7782,2.7801,2.7801,2.7801,2.7731,2.7728,2.7725,2.7723,2.7746,2.7749,2.7752,0,0,0,0,0,0,0,0,0,0,0,0,0,2.7721,2.7692,2.7781,2.7749,2.7746,2.7801,2.7801,2.7801,2.7731,2.7728,2.7725,2.7722,2.7745,2.7749,2.7753,2.784,0,0,2.7764,2.7766,0,0,0,0,0,0,0,0,2.7719,2.7725,2.7753,2.7751,2.7748,2.776,2.7777,2.7815,2.7732,2.7737,2.7724,2.772,2.7754,2.7757,2.7768,2.7841,2.7842,2.7765,2.7767,2.7769,2.777,0,0,0,0,0,0,0,2.7717,2.7723,2.7789,2.7754,2.7751,2.7735,2.7736,2.7784,2.7763,2.7736,2.7731,2.7734,2.7752,2.7764,2.7768,2.7843,2.7765,2.7768,2.7771,2.7772,2.7995,2.7999,0,0,0,0,0,0,2.7719,2.7722,2.7789,2.779,2.7726,2.774,2.7741,2.7759,2.7762,2.776,2.7737,2.7731,2.7759,2.7763,2.7768,2.7875,2.7769,2.7772,2.7775,2.7992,2.7996,2.8,0,0,0,0,0,0,2.7717,2.7725,2.7788,2.7755,2.7761,2.7744,2.7766,2.7761,2.7773,2.7763,2.7759,2.7753,2.7757,2.7763,2.7824,2.7874,2.7774,2.7778,2.7987,2.7993,2.7998,2.8087,0,0,0,0,0,0,2.7715,2.7725,2.7757,2.7756,2.7763,2.7842,2.7769,2.7764,2.778,2.7772,2.7777,2.7775,2.7755,2.7819,2.7828,2.7878,2.7781,2.7983,2.799,2.7996,2.8079,2.8094,2.8107,0,0,0,0,0,2.7712,2.778,2.7759,2.7767,2.7802,2.7845,2.7849,2.7824,2.7784,2.7817,2.7811,2.7774,2.7867,2.7825,2.7835,2.7887,2.7979,2.7988,2.7996,2.8073,2.8091,2.8107,0,0,0,0,0,0,2.7788,2.7779,2.7755,2.7825,2.7836,2.7832,2.7873,2.7844,2.7866,2.7858,2.7827,2.7829,2.7897,2.7898,2.7851,2.7975,2.7917,2.7927,2.7972,2.799,2.8004,2.8003,2.7784,0,0,0,0,0,2.7813,2.7846,2.7838,2.7901,2.7907,2.789,2.7907,2.7887,2.7897,2.7902,2.79,2.7913,2.7945,2.7967,2.7996,2.8079,2.8081,2.812,2.8134,2.8146,2.8156,2.8204,2.8223,2.8026,2.8026,2.8026,0,0,2.7864,2.7864,2.7887,2.7916,2.7922,2.796,2.7894,2.7936,2.7965,2.7908,2.7967,2.7967,2.7979,2.8053,2.8085,2.8056,2.8211,2.8156,2.8165,2.8169,2.8215,2.8233,2.825,2.8032,2.8031,2.803,0,0,2.7979,2.798,2.8035,2.8043,2.8054,2.8042,2.8055,2.8057,2.8055,2.8113,2.8073,2.8107,2.8162,2.8174,2.8188,2.8312,2.8281,2.8322,2.8397,2.8444,2.846,2.8474,2.8522,2.8539,2.8332,2.8332,2.8332,0,2.8042,2.8096,2.8067,2.8113,2.8129,2.808,2.8137,2.8147,2.8166,2.818,2.8146,2.8218,2.8222,2.83,2.8331,2.8342,2.8359,2.8322,2.846,2.8473,2.8486,2.8531,2.8549,2.8337,2.8336,2.8336,2.8335,0,2.8176,2.8215,2.8258,2.8279,2.83,2.8351,2.8332,2.8357,2.8336,2.8329,2.8391,2.8395,2.8426,2.8443,2.8422,2.852,2.8502,2.8465,2.8406,2.851,2.8553,2.857,2.8345,2.8343,2.8341,2.834,0,0,2.8338,2.8345,2.8361,2.8372,2.8382,2.8412,2.8463,2.8493,2.8517,2.8533,2.8577,2.8627,2.8594,2.861,2.859,2.8632,2.8735,2.859,2.859,2.862,2.8848,2.8879,2.8899,2.8714,2.8717,2.872,2.8849,0,2.8454,2.854,2.8517,2.8604,2.8642,2.8598,2.8643,2.8655,2.8651,2.8684,2.8679,2.8717,2.8668,2.8678,2.8717,2.8714,2.8781,2.8704,2.8759,2.8761,2.876,2.8921,2.8952,2.9073,2.8865,2.8867,2.8869,0,2.8599,2.8622,2.8714,2.8721,2.8736,2.8777,2.8805,2.8836,2.8851,2.8845,2.8865,2.8838,2.8892,2.8832,2.8908,2.8856,2.8877,2.888,2.8884,2.889,2.8823,2.8935,2.9111,2.9131,2.8895,2.8893,2.8891,0,2.8713,2.8767,2.8829,2.884,2.8848,2.8879,2.8885,2.8896,2.8917,2.8942,2.8957,2.8988,2.9006,2.9032,2.9017,2.8973,2.9097,2.9034,2.9097,2.9098,2.9127,2.9126,2.9312,2.9135,2.9135,2.9135,2.9134,0,2.8846,2.8905,2.8881,2.892,2.8986,2.896,2.9027,2.9027,2.9038,2.9079,2.9042,2.9081,2.9057,2.9095,2.9083,2.9151,2.9158,2.9158,2.9154,2.9163,2.9163,2.9178,2.917,2.9139,2.9138,2.9137,2.9137,0,2.8985,2.8971,2.9037,2.9041,2.9044,2.9093,2.9097,2.9135,2.9129,2.9181,2.9192,2.9183,2.9226,2.9213,2.9259,2.9252,2.9339,2.9323,2.9334,2.9331,2.9396,2.9392,2.9601,2.9629,2.9431,2.9433,2.9434,0,2.9072,2.9116,2.9126,2.915,2.9159,2.9198,2.922,2.9197,2.9222,2.9245,2.9281,2.9321,2.9353,2.9425,2.9424,2.9461,2.9448,2.9519,2.9453,2.9462,2.9454,2.9453,2.9459,2.9533,2.9535,2.9537,2.9538,0,2.9229,2.9221,2.9254,2.9286,2.9313,2.9337,2.9358,2.938,2.936,2.939,2.9434,2.9459,2.9508,2.955,2.9584,2.9592,2.9564,2.9559,2.9576,2.9587,2.9593,2.9595,2.9373,2.9555,2.9553,2.9552,2.9551,2.955,2.9347,2.9386,2.9401,2.944,2.9453,2.9474,2.9512,2.9511,2.9547,2.9585,2.957,2.9622,2.964,2.9683,2.9696,2.9738,2.9712,2.9735,2.9742,2.9749,2.976,2.9584,2.9744,2.9744,2.9743,2.9743,2.9742,0,2.9506,2.9514,2.955,2.9581,2.9613,2.9582,2.9604,2.9634,2.968,2.9698,2.9731,2.9784,2.9826,2.9829,2.9869,2.9903,2.9892,2.9915,2.9914,2.9917,2.9779,2.9762,2.9924,2.9924,2.9924,2.9924,2.9924,2.9924,2.9593,2.9659,2.9653,2.9728,2.9735,2.9785,2.9802,2.9823,2.9838,2.9899,2.9934,2.9935,2.9949,2.9991,3.0029,3.0029,3.0048,3.0077,3.0073,2.9944,2.9926,2.9909,2.9893,3.008,3.008,3.0208,3.0209,3.021]},{"header":{"parameterUnit":"m.s-1","parameterCategory":1,"la1":30.2991,"la2":30.254,"lo1":-89.0895,"lo2":-89.0444,"dy":0.0017,"dx":0.0017,"nx":28,"ny":28,"refTime":"2024-08-06T09:00:00:Z","depth":0,"parameterNumber":3,"parameterNumberName":"V-component_of_WINDS"},"data":[0,0,0,0,0,0,0,0,0,0,0,0,0,0,0,0,0,0,0,0,0,0,0,0,0,0,0,0,0,0,0,0,0,0,0,0,0,0,0,0,0,0,0,0,0,0,0,0,0,0,0,0,0,0,0,0,0,0,-1.4319,-1.4318,0,-1.4168,-1.4167,-1.4165,-1.4177,-1.4179,-1.4181,-1.4184,-1.4018,-1.4011,-1.4005,0,0,0,0,0,0,0,0,0,0,0,0,0,-1.4607,-1.4601,-1.432,-1.4318,-1.4316,-1.4169,-1.4167,-1.4164,-1.4176,-1.4179,-1.4182,-1.4185,-1.402,-1.4012,-1.4004,0,0,0,0,0,0,0,0,0,0,0,0,0,-1.4471,-1.46,-1.432,-1.4304,-1.4301,-1.4169,-1.4167,-1.4164,-1.4176,-1.4179,-1.4183,-1.4186,-1.4022,-1.4013,-1.4003,-1.3873,0,0,-1.3973,-1.3969,0,0,0,0,0,0,0,0,-1.4479,-1.4461,-1.4308,-1.4305,-1.4302,-1.4195,-1.4207,-1.4066,-1.4175,-1.4223,-1.4184,-1.4188,-1.4073,-1.4059,-1.4023,-1.3865,-1.3858,-1.3972,-1.3966,-1.3962,-1.3959,0,0,0,0,0,0,0,-1.4488,-1.4467,-1.4259,-1.4306,-1.4302,-1.4301,-1.4286,-1.418,-1.413,-1.4219,-1.422,-1.4202,-1.4072,-1.4033,-1.4019,-1.3856,-1.3972,-1.3964,-1.3958,-1.3954,-1.358,-1.3576,0,0,0,0,0,0,-1.4503,-1.4475,-1.4264,-1.4255,-1.4401,-1.4293,-1.4276,-1.4226,-1.4132,-1.4121,-1.42,-1.4203,-1.4048,-1.4031,-1.4013,-1.3852,-1.3962,-1.3953,-1.3947,-1.3584,-1.3579,-1.3575,0,0,0,0,0,0,-1.4509,-1.4484,-1.427,-1.4365,-1.4338,-1.4285,-1.4228,-1.4221,-1.4182,-1.4117,-1.4107,-1.4169,-1.405,-1.4027,-1.3908,-1.3847,-1.3948,-1.3939,-1.3589,-1.3582,-1.3577,-1.3531,0,0,0,0,0,0,-1.4517,-1.4486,-1.4439,-1.4364,-1.4333,-1.417,-1.4224,-1.4215,-1.4166,-1.417,-1.4086,-1.4075,-1.4051,-1.3923,-1.3898,-1.3835,-1.3932,-1.3594,-1.3586,-1.3579,-1.3538,-1.3524,-1.3513,0,0,0,0,0,-1.4527,-1.443,-1.4436,-1.4411,-1.4273,-1.4167,-1.4149,-1.4126,-1.4161,-1.4111,-1.4069,-1.4078,-1.3859,-1.391,-1.3883,-1.3816,-1.3597,-1.3588,-1.3579,-1.3543,-1.3527,-1.3513,0,0,0,0,0,0,-1.4495,-1.442,-1.4426,-1.4303,-1.4242,-1.417,-1.4106,-1.411,-1.4035,-1.4041,-1.4013,-1.3993,-1.3872,-1.3833,-1.3892,-1.3683,-1.3732,-1.3717,-1.3714,-1.3698,-1.3685,-1.3696,-1.3923,0,0,0,0,0,-1.4475,-1.4399,-1.4335,-1.4232,-1.4202,-1.4159,-1.4112,-1.41,-1.4034,-1.4007,-1.3957,-1.3889,-1.3805,-1.3749,-1.3668,-1.3533,-1.3512,-1.3473,-1.3461,-1.3451,-1.3437,-1.3359,-1.3339,-1.3545,-1.3545,-1.3545,0,0,-1.4429,-1.4379,-1.4332,-1.4224,-1.4176,-1.4093,-1.4137,-1.4049,-1.3986,-1.3993,-1.3877,-1.3837,-1.376,-1.3631,-1.3572,-1.3594,-1.3376,-1.3439,-1.3432,-1.3423,-1.3347,-1.3328,-1.3311,-1.3539,-1.354,-1.3541,0,0,-1.4304,-1.4261,-1.4169,-1.412,-1.4047,-1.4019,-1.3997,-1.3924,-1.3899,-1.3784,-1.3786,-1.371,-1.3566,-1.351,-1.3462,-1.3316,-1.332,-1.3291,-1.3224,-1.3148,-1.3132,-1.3117,-1.3061,-1.3042,-1.3278,-1.3278,-1.3278,0,-1.4256,-1.4136,-1.412,-1.4031,-1.3981,-1.3988,-1.3892,-1.3844,-1.3747,-1.3711,-1.3738,-1.3557,-1.3506,-1.3362,-1.3327,-1.329,-1.326,-1.3298,-1.3136,-1.3121,-1.3107,-1.3053,-1.3033,-1.3274,-1.3275,-1.3275,-1.3275,0,-1.4079,-1.3995,-1.3929,-1.3839,-1.3782,-1.369,-1.3656,-1.36,-1.3593,-1.3561,-1.3442,-1.3381,-1.3286,-1.3252,-1.3243,-1.3106,-1.3122,-1.3143,-1.319,-1.3085,-1.3033,-1.3013,-1.327,-1.3271,-1.3272,-1.3273,0,0,-1.3927,-1.383,-1.3806,-1.3764,-1.3684,-1.3617,-1.3523,-1.3435,-1.3386,-1.3318,-1.3236,-1.3115,-1.3134,-1.308,-1.3065,-1.2999,-1.2883,-1.3028,-1.3025,-1.3,-1.2724,-1.2706,-1.2682,-1.2886,-1.2882,-1.2879,-1.2729,0,-1.3792,-1.3631,-1.3613,-1.3467,-1.3387,-1.3392,-1.331,-1.325,-1.3218,-1.3142,-1.3105,-1.3018,-1.3052,-1.3019,-1.2955,-1.2911,-1.2826,-1.2922,-1.2805,-1.2801,-1.2821,-1.2656,-1.2637,-1.2498,-1.2709,-1.2706,-1.2703,0,-1.3612,-1.3542,-1.339,-1.332,-1.3285,-1.3213,-1.3129,-1.3059,-1.2989,-1.297,-1.291,-1.2903,-1.2802,-1.2857,-1.2715,-1.2781,-1.2732,-1.2703,-1.2697,-1.2682,-1.2743,-1.2633,-1.2454,-1.2431,-1.2672,-1.2675,-1.2677,0,-1.3512,-1.3381,-1.3272,-1.3236,-1.3152,-1.31,-1.3062,-1.2997,-1.2944,-1.287,-1.2834,-1.2748,-1.27,-1.2631,-1.26,-1.2643,-1.2458,-1.2511,-1.2435,-1.2436,-1.2393,-1.2395,-1.2199,-1.2368,-1.2368,-1.2369,-1.2369,0,-1.336,-1.3265,-1.3226,-1.3158,-1.3051,-1.303,-1.2923,-1.2887,-1.2828,-1.2751,-1.2749,-1.2676,-1.2641,-1.256,-1.2535,-1.2419,-1.2398,-1.2376,-1.237,-1.2374,-1.2376,-1.2339,-1.2346,-1.2363,-1.2364,-1.2365,-1.2366,0,-1.3229,-1.32,-1.308,-1.3012,-1.2993,-1.2916,-1.2855,-1.2788,-1.2758,-1.2659,-1.2634,-1.2584,-1.249,-1.2453,-1.2336,-1.2319,-1.2184,-1.2187,-1.2208,-1.2206,-1.2131,-1.2137,-1.1901,-1.1867,-1.2062,-1.206,-1.2058,0,-1.3133,-1.306,-1.2985,-1.2935,-1.2896,-1.2815,-1.2762,-1.2738,-1.2682,-1.2597,-1.2538,-1.2445,-1.2369,-1.2217,-1.2167,-1.2077,-1.2075,-1.1999,-1.2062,-1.2067,-1.2069,-1.2073,-1.2063,-1.1986,-1.1984,-1.1983,-1.1981,0,-1.2963,-1.2952,-1.2878,-1.2797,-1.2735,-1.267,-1.2606,-1.2564,-1.2529,-1.2465,-1.2371,-1.2312,-1.2194,-1.21,-1.2007,-1.1964,-1.1964,-1.1963,-1.194,-1.1941,-1.1955,-1.1943,-1.2173,-1.1967,-1.1969,-1.197,-1.197,-1.1971,-1.2843,-1.2779,-1.2715,-1.2632,-1.2582,-1.2522,-1.2455,-1.2418,-1.2339,-1.2244,-1.2234,-1.2131,-1.206,-1.1937,-1.189,-1.1806,-1.1825,-1.1793,-1.1784,-1.1775,-1.1768,-1.1972,-1.1789,-1.1789,-1.179,-1.179,-1.179,0,-1.267,-1.2631,-1.2555,-1.2467,-1.24,-1.2413,-1.2342,-1.2284,-1.2194,-1.2131,-1.2057,-1.1946,-1.1854,-1.1799,-1.1706,-1.1649,-1.1647,-1.1625,-1.1626,-1.1615,-1.1758,-1.1786,-1.1628,-1.1628,-1.1628,-1.1628,-1.1628,-1.1628,-1.2572,-1.2463,-1.2444,-1.2308,-1.2267,-1.2169,-1.2128,-1.2071,-1.202,-1.1898,-1.1823,-1.1789,-1.1727,-1.163,-1.1545,-1.153,-1.1494,-1.147,-1.1456,-1.1589,-1.1606,-1.1622,-1.1647,-1.1463,-1.1463,-1.132,-1.1319,-1.1318]}]]